| time (UTC) | temp F | wind direction | speed knots | gust knots | rain 1hr in | rain 24hr in | rain mn in | humidity % | barometer mb |
| 20260508104530 | 50 | 31 | 1.7 | 5.2 | 0.00 | 0.00 | 0.00 | 65 | 1018.2 |
| 20260508103145 | 49 | 50 | 1.7 | 5.2 | 0.00 | 0.00 | 0.00 | 65 | 1018.2 |
| 20260508101542 | 49 | 67 | 0.9 | 3.5 | 0.00 | 0.00 | 0.00 | 64 | 1018.3 |
| 20260508100031 | 49 | 61 | 2.6 | 4.3 | 0.00 | 0.00 | 0.00 | 63 | 1018.2 |
| 20260508094607 | 50 | 26 | 2.6 | 5.2 | 0.00 | 0.00 | 0.00 | 61 | 1018.2 |
| 20260508091529 | 51 | 42 | 2.6 | 6.1 | 0.00 | 0.00 | 0.00 | 58 | 1018.0 |
| 20260508090032 | 52 | 60 | 1.7 | 4.3 | 0.00 | 0.00 | 0.00 | 58 | 1018.1 |
| 20260508084533 | 52 | 56 | 1.7 | 4.3 | 0.00 | 0.00 | 0.00 | 56 | 1018.1 |
| 20260508083030 | 53 | 79 | 2.6 | 5.2 | 0.00 | 0.00 | 0.00 | 54 | 1018.1 |
| 20260508081530 | 53 | 171 | 0.0 | 3.5 | 0.00 | 0.00 | 0.00 | 53 | 1018.1 |
| 20260508074531 | 53 | 165 | 1.7 | 6.1 | 0.00 | 0.00 | 0.00 | 54 | 1018.1 |
| 20260508073029 | 53 | 21 | 0.9 | 4.3 | 0.00 | 0.00 | 0.00 | 54 | 1018.0 |
| 20260508071532 | 53 | 308 | 0.0 | 3.5 | 0.00 | 0.00 | 0.00 | 55 | 1018.0 |
| 20260508070028 | 53 | 119 | 0.9 | 3.5 | 0.00 | 0.00 | 0.00 | 56 | 1018.0 |
| 20260508064530 | 53 | 76 | 1.7 | 4.3 | 0.00 | 0.00 | 0.00 | 56 | 1018.0 |
| 20260508063030 | 52 | 347 | 0.9 | 4.3 | 0.00 | 0.00 | 0.00 | 56 | 1018.0 |
| 20260508061531 | 52 | 14 | 0.0 | 4.3 | 0.00 | 0.00 | 0.00 | 56 | 1018.0 |
| 20260508060029 | 52 | 40 | 0.0 | 4.3 | 0.00 | 0.00 | 0.00 | 56 | 1018.1 |
| 20260508051530 | 53 | 13 | 1.7 | 4.3 | 0.00 | 0.00 | 0.00 | 49 | 1018.1 |
| 20260508044606 | 55 | 73 | 0.0 | 3.5 | 0.00 | 0.00 | 0.00 | 49 | 1017.9 |
| 20260508043029 | 56 | 340 | 0.9 | 5.2 | 0.00 | 0.00 | 0.00 | 47 | 1017.9 |
| 20260508041531 | 57 | 278 | 1.7 | 7.8 | 0.00 | 0.00 | 0.00 | 45 | 1017.8 |
| 20260508034533 | 57 | 301 | 2.6 | 7.8 | 0.00 | 0.00 | 0.00 | 41 | 1017.5 |
| 20260508031533 | 60 | 296 | 0.9 | 5.2 | 0.00 | 0.00 | 0.00 | 35 | 1017.3 |
| 20260508030030 | 61 | 300 | 2.6 | 9.6 | 0.00 | 0.00 | 0.00 | 32 | 1017.3 |
| 20260508024645 | 63 | 302 | 5.2 | 9.6 | 0.00 | 0.00 | 0.00 | 30 | 1017.2 |
| 20260508023027 | 65 | 311 | 5.2 | 13.0 | 0.00 | 0.00 | 0.00 | 30 | 1017.1 |
| 20260508021529 | 65 | 314 | 5.2 | 13.9 | 0.00 | 0.00 | 0.00 | 29 | 1017.0 |
| 20260508020028 | 66 | 320 | 6.1 | 15.6 | 0.00 | 0.00 | 0.00 | 28 | 1017.1 |
| 20260508014530 | 67 | 321 | 6.1 | 14.8 | 0.00 | 0.00 | 0.00 | 26 | 1017.0 |
| 20260508003055 | 0 | 0 | 0.0 | 0.0 | 0.00 | 0.00 | 0.00 | 100 | |
| 20260508001530 | 70 | 328 | 5.2 | 20.9 | 0.00 | 0.00 | 0.00 | 24 | 1017.2 |
| 20260508000033 | 70 | 313 | 6.1 | 18.2 | 0.00 | 0.00 | 0.00 | 24 | 1017.1 |
| 20260507231531 | 68 | 310 | 7.0 | 18.2 | 0.00 | 0.00 | 0.00 | 32 | 1017.4 |
| 20260507230112 | 68 | 310 | 8.7 | 16.5 | 0.00 | 0.00 | 0.00 | 32 | 1017.4 |
| 20260507224529 | 70 | 310 | 7.8 | 17.4 | 0.00 | 0.00 | 0.00 | 32 | 1017.4 |
| 20260507223039 | 70 | 314 | 8.7 | 18.2 | 0.00 | 0.00 | 0.00 | 33 | 1017.5 |
| 20260507221532 | 69 | 308 | 7.0 | 13.0 | 0.00 | 0.00 | 0.00 | 34 | 1017.8 |
| 20260507220032 | 69 | 322 | 7.0 | 16.5 | 0.00 | 0.00 | 0.00 | 35 | 1017.9 |
| 20260507214530 | 68 | 320 | 7.0 | 18.2 | 0.00 | 0.00 | 0.00 | 38 | 1018.1 |
| 20260507213030 | 68 | 317 | 7.0 | 20.0 | 0.00 | 0.00 | 0.00 | 40 | 1018.3 |
| 20260507210026 | 68 | 320 | 6.1 | 14.8 | 0.00 | 0.00 | 0.00 | 44 | 1018.7 |
| 20260507204529 | 67 | 330 | 6.1 | 15.6 | 0.00 | 0.00 | 0.00 | 44 | 1018.8 |
| 20260507203031 | 66 | 334 | 6.1 | 15.6 | 0.00 | 0.00 | 0.00 | 44 | 1018.8 |
| 20260507201532 | 66 | 343 | 7.0 | 13.9 | 0.00 | 0.00 | 0.00 | 46 | 1018.9 |
| 20260507200031 | 65 | 334 | 6.1 | 16.5 | 0.00 | 0.00 | 0.00 | 46 | 1019.0 |
| 20260507194528 | 65 | 322 | 7.0 | 17.4 | 0.00 | 0.00 | 0.00 | 47 | 1019.1 |
| 20260507193107 | 64 | 325 | 6.1 | 13.0 | 0.00 | 0.00 | 0.00 | 50 | 1019.2 |
| 20260507191529 | 63 | 347 | 7.8 | 15.6 | 0.00 | 0.00 | 0.00 | 52 | 1019.4 |
| 20260507184533 | 62 | 328 | 6.1 | 13.0 | 0.00 | 0.00 | 0.00 | 54 | 1019.7 |
| 20260507183105 | 61 | 349 | 7.0 | 14.8 | 0.00 | 0.00 | 0.00 | 56 | 1019.8 |
| 20260507181532 | 61 | 346 | 7.0 | 14.8 | 0.00 | 0.00 | 0.00 | 59 | 1020.0 |
| 20260507180029 | 60 | 336 | 5.2 | 11.3 | 0.00 | 0.00 | 0.00 | 62 | 1020.1 |
| 20260507174532 | 59 | 349 | 7.0 | 13.0 | 0.00 | 0.00 | 0.00 | 63 | 1020.2 |
| 20260507173029 | 59 | 339 | 6.1 | 9.6 | 0.00 | 0.00 | 0.00 | 64 | 1020.4 |
| 20260507171533 | 58 | 334 | 5.2 | 12.2 | 0.00 | 0.00 | 0.00 | 66 | 1020.6 |
| 20260507170032 | 57 | 338 | 5.2 | 13.0 | 0.00 | 0.00 | 0.00 | 67 | 1020.6 |
| 20260507164531 | 56 | 320 | 6.1 | 13.0 | 0.00 | 0.00 | 0.00 | 68 | 1020.7 |
| 20260507163032 | 55 | 326 | 4.3 | 13.9 | 0.00 | 0.00 | 0.00 | 70 | 1020.8 |
| 20260507161601 | 55 | 327 | 4.3 | 12.2 | 0.00 | 0.00 | 0.00 | 72 | 1020.8 |
| 20260507160032 | 55 | 334 | 4.3 | 11.3 | 0.00 | 0.00 | 0.00 | 74 | 1020.8 |
| 20260507154530 | 54 | 326 | 4.3 | 12.2 | 0.00 | 0.00 | 0.00 | 76 | 1020.8 |
| 20260507151603 | 52 | 317 | 5.2 | 13.9 | 0.00 | 0.00 | 0.00 | 81 | 1020.9 |
| 20260507150034 | 50 | 317 | 6.1 | 13.9 | 0.00 | 0.00 | 0.00 | 84 | 1020.9 |
| 20260507144532 | 49 | 313 | 7.0 | 14.8 | 0.00 | 0.00 | 0.00 | 85 | 1020.8 |
| 20260507141529 | 48 | 355 | 7.0 | 13.0 | 0.00 | 0.00 | 0.00 | 87 | 1020.8 |
| 20260507140145 | 48 | 359 | 6.1 | 10.4 | 0.00 | 0.00 | 0.00 | 87 | 1020.6 |
| 20260507134532 | 48 | 5 | 6.1 | 9.6 | 0.00 | 0.00 | 0.00 | 87 | 1020.5 |
| 20260507133106 | 49 | 15 | 7.0 | 13.9 | 0.00 | 0.00 | 0.00 | 87 | 1020.3 |
| 20260507131530 | 48 | 12 | 6.1 | 11.3 | 0.00 | 0.00 | 0.00 | 86 | 1020.3 |
| 20260507130032 | 49 | 9 | 6.1 | 11.3 | 0.00 | 0.00 | 0.00 | 86 | 1020.2 |
| 20260507123108 | 49 | 344 | 3.5 | 8.7 | 0.00 | 0.00 | 0.00 | 84 | 1020.3 |
| 20260507121530 | 50 | 347 | 3.5 | 7.8 | 0.00 | 0.00 | 0.00 | 84 | 1020.3 |
| 20260507114540 | 50 | 1 | 7.0 | 13.0 | 0.00 | 0.00 | 0.00 | 84 | 1020.1 |
| 20260507113028 | 50 | 356 | 6.1 | 14.8 | 0.00 | 0.00 | 0.00 | 83 | 1020.0 |
| 20260507110033 | 51 | 336 | 5.2 | 13.0 | 0.00 | 0.00 | 0.00 | 83 | 1019.8 |